FW7487 Weather Reports


time (UTC)temp
C
wind
direction
speed
KPH
gust
KPH
rain 1hr
cm
rain 24hr
cm
rain mn
cm
humidity
%
barometer
mb
20260509044548 16 0 0.0 0.0 0.00 0.00 0.00 90 1014.5
20260509043044 16 0 0.0 0.0 0.00 0.00 0.00 90 1014.7
20260509041615 16 0 0.0 3.2 0.00 0.00 0.00 90 1014.4
20260509040049 16 0 0.0 1.6 0.00 0.00 0.00 90 1014.7
20260509034548 16 0 0.0 3.2 0.00 0.00 0.00 89 1015.1
20260509033048 16 360 0.0 1.6 0.00 0.00 0.00 88 1014.8
20260509031553 17 0 0.0 4.8 0.00 0.00 0.00 87 1015.1
20260509030046 17 0 0.0 3.2 0.00 0.00 0.00 87 1014.8
20260509024549 17 360 1.6 6.4 0.00 0.00 0.00 88 1014.9
20260509023105 17 0 0.0 4.8 0.00 0.00 0.00 88 1015.3
20260509021548 17 360 0.0 4.8 0.00 0.00 0.00 89 1015.4
20260509020054 17 0 0.0 0.0 0.00 0.00 0.00 88 1015.3
20260509014544 17 0 0.0 1.6 0.00 0.00 0.00 87 1014.8
20260509013054 17 360 1.6 4.8 0.00 0.00 0.00 86 1014.6
20260509011557 17 0 0.0 3.2 0.00 0.00 0.00 86 1014.9
20260509010053 17 360 0.0 3.2 0.00 0.00 0.00 85 1015.3
20260509004551 17 0 0.0 1.6 0.00 0.00 0.00 85 1015.4
20260509003047 17 0 0.0 1.6 0.00 0.00 0.00 84 1015.7
20260509001545 17 360 0.0 1.6 0.00 0.00 0.00 83 1015.8
20260509000042 18 0 0.0 3.2 0.00 0.00 0.00 83 1015.5
20260508234552 18 0 0.0 3.2 0.00 0.00 0.00 81 1015.3
20260508233048 18 360 0.0 3.2 0.00 0.00 0.00 81 1015.7
20260508231547 18 360 1.6 6.4 0.00 0.00 0.00 80 1015.7
20260508230048 18 360 0.0 3.2 0.00 0.00 0.00 79 1015.4
20260508224546 18 360 0.0 4.8 0.00 0.00 0.00 77 1015.0
20260508223051 19 0 0.0 3.2 0.00 0.00 0.00 76 1014.9
20260508221551 19 0 0.0 4.8 0.00 0.00 0.00 76 1015.0
20260508220049 19 0 0.0 6.4 0.00 0.00 0.00 75 1014.8
20260508214547 19 0 0.0 6.4 0.00 0.00 0.00 75 1015.1
20260508213046 19 360 1.6 6.4 0.00 0.00 0.00 73 1015.0
20260508211545 19 360 0.0 4.8 0.00 0.00 0.00 74 1015.5
20260508210048 19 360 0.0 6.4 0.00 0.00 0.00 73 1015.6
20260508204553 19 360 1.6 8.0 0.00 0.00 0.00 73 1015.7
20260508203047 19 360 3.2 8.0 0.00 0.00 0.00 71 1015.5
20260508201548 20 360 1.6 6.4 0.00 0.00 0.00 72 1015.4
20260508200105 19 360 3.2 12.9 0.00 0.00 0.00 72 1015.6
20260508194553 20 360 3.2 8.0 0.00 0.00 0.00 69 1015.8
20260508193130 20 360 1.6 8.0 0.00 0.00 0.00 67 1016.2
20260508191556 20 360 1.6 9.7 0.00 0.00 0.00 69 1016.0
20260508190047 20 360 3.2 9.7 0.00 0.00 0.00 66 1016.0
20260508184551 20 360 3.2 9.7 0.00 0.00 0.00 64 1016.0
20260508183109 20 360 1.6 12.9 0.00 0.00 0.00 63 1016.4
20260508181601 21 360 1.6 8.0 0.00 0.00 0.00 62 1016.6
20260508180050 20 360 1.6 9.7 0.00 0.00 0.00 60 1016.7
20260508174552 21 132 3.2 8.0 0.00 0.00 0.00 59 1017.2
20260508173047 20 55 1.6 8.0 0.00 0.00 0.00 61 1017.0
20260508171545 20 360 1.6 4.8 0.00 0.00 0.00 59 1017.3
20260508170054 20 0 0.0 8.0 0.00 0.00 0.00 61 1017.3
20260508164550 21 141 3.2 9.7 0.00 0.00 0.00 57 1017.0
20260508163050 20 0 3.2 8.0 0.00 0.00 0.00 58 1017.6
20260508161548 20 0 3.2 9.7 0.00 0.00 0.00 56 1017.6
20260508160047 20 113 1.6 9.7 0.00 0.00 0.00 58 1017.9
20260508154606 20 333 1.6 8.0 0.00 0.33 0.00 61 1018.3
20260508153046 20 104 3.2 11.3 0.00 0.33 0.00 57 1018.7
20260508151542 20 0 1.6 9.7 0.00 0.33 0.00 59 1018.5
20260508150048 20 56 1.6 9.7 0.00 0.33 0.00 61 1018.4
20260508144600 20 169 3.2 11.3 0.00 0.33 0.00 62 1018.4
20260508143046 20 124 4.8 12.9 0.00 0.33 0.00 62 1018.5
20260508141543 19 64 1.6 12.9 0.00 0.33 0.00 67 1018.7
20260508140051 18 64 3.2 14.5 0.00 0.33 0.00 69 1018.5
20260508134611 18 15 1.6 14.5 0.00 0.36 0.00 73 1018.6
20260508133056 17 360 1.6 8.0 0.00 0.36 0.00 75 1018.6
20260508131550 16 360 0.0 6.4 0.00 0.36 0.00 76 1018.6
20260508130046 16 360 1.6 6.4 0.00 0.36 0.00 77 1018.5
20260508124555 15 360 1.6 4.8 0.00 0.43 0.00 78 1018.1
20260508123052 15 0 1.6 6.4 0.00 0.43 0.00 80 1018.5
20260508121548 15 360 4.8 9.7 0.00 0.43 0.00 82 1018.1
20260508120048 14 360 3.2 8.0 0.00 0.43 0.00 84 1018.1
20260508114546 13 360 1.6 6.4 0.00 1.07 0.00 86 1017.9
20260508113042 13 0 0.0 0.0 0.00 1.07 0.00 87 1017.5
20260508111551 13 0 0.0 0.0 0.00 1.07 0.00 87 1017.1
20260508110049 13 0 0.0 0.0 0.00 1.07 0.00 88 1016.9
20260508104548 13 0 0.0 4.8 0.00 1.37 0.00 87 1016.3
20260508103044 13 360 1.6 4.8 0.00 1.37 0.00 86 1016.4
20260508101543 13 360 3.2 6.4 0.00 1.37 0.00 85 1016.0
20260508100106 14 360 3.2 8.0 0.00 1.37 0.00 85 1015.7
20260508094601 14 0 1.6 6.4 0.00 1.45 0.00 84 1015.7
20260508093047 14 360 1.6 6.4 0.00 1.45 0.00 83 1015.6
20260508091603 14 0 1.6 4.8 0.00 1.45 0.00 83 1015.6
20260508090113 14 360 0.0 4.8 0.00 1.45 0.00 83 1015.4
20260508084550 14 360 0.0 4.8 0.00 1.45 0.00 82 1015.5
20260508083047 15 360 3.2 6.4 0.00 1.45 0.00 81 1015.3
20260508081602 15 360 3.2 8.0 0.00 1.45 0.00 80 1015.3
20260508080042 15 360 3.2 8.0 0.00 1.45 0.00 81 1015.1
20260508074547 15 360 4.8 9.7 0.00 1.57 0.00 81 1014.7
20260508073104 15 360 4.8 8.0 0.00 1.57 0.00 81 1014.9
20260508071547 15 360 3.2 16.1 0.00 1.57 0.00 82 1014.9
20260508070049 15 360 4.8 9.7 0.00 1.57 0.00 83 1014.9
20260508064549 15 360 4.8 14.5 0.00 2.26 0.00 83 1014.8
20260508063054 16 360 6.4 16.1 0.00 2.26 0.00 82 1015.1
20260508061554 16 360 6.4 17.7 0.00 2.26 0.00 83 1015.6
20260508054543 16 360 4.8 14.5 0.00 3.15 0.00 83 1015.6
20260508053042 16 360 3.2 14.5 0.00 3.15 0.00 84 1015.7
20260508051559 16 360 6.4 16.1 0.00 3.15 0.00 84 1015.9
20260508050047 16 360 4.8 14.5 0.00 3.15 0.00 85 1015.7